Weather History for Palm Springs, CA

Change the Weather History Date:

Saturday, May 5, 2012

  Actual Average Record
Temperature  
Mean Temperature 77 °F 76 °F  
Max Temperature 94 °F 90 °F 109 °F (1948)
Min Temperature 60 °F 62 °F 41 °F (1964)
Degree Days  
Heating Degree Days 0 0  
Month to date heating degree days 0 0  
Since 1 July heating degree days 771 872  
Cooling Degree Days 12 11  
Month to date cooling degree days 48 53  
Year to date cooling degree days 457 373  
Growing Degree Days 28 (Base 50)    
Moisture  
Dew Point 39 °F    
Average Humidity 32    
Maximum Humidity 56    
Minimum Humidity 7    
Precipitation  
Precipitation 0.00 in 0.01 in 0.31 in (1969)
Month to date precipitation 0.00 0.06  
Year to date precipitation 0.79 2.81  
Since 1 July precipitation 2.27 5.61  
Snow  
Snow 0.00 in - - ()
Month to date snowfall 0.0  
Year to date snowfall 0.0  
Since 1 July snowfall 0.0  
Snow Depth 0.00 in    
Sea Level Pressure  
Sea Level Pressure 29.85 in    
Wind  
Wind Speed 3 mph (NW)    
Max Wind Speed 15 mph    
Max Gust Speed 18 mph    
Visibility 10 miles    
Events      
T = Trace of Precipitation, MM = Missing Value Source: NWS Daily Summary

Daily Weather History Graph

Daily Weather History Graph

Search for Another Location

Airport:

Trip Planner

Search our weather history database for the weather conditions in past years. The results will help you decide how hot, cold, wet, or windy it might be!

Date:

Astronomy

May. 05, 2012 Rise Set
Actual Time 5:52 AM PDT 7:33 PM PDT
Civil Twilight 5:25 AM PDT 8:00 PM PDT
Nautical Twilight 4:53 AM PDT 8:32 PM PDT
Astronomical Twilight 4:19 AM PDT 9:06 PM PDT
Moon 7:29 PM PDT (5/5) 5:18 AM PDT (5/5)
Length of Visible Light 14h 34m
Length of Day
13h 40m
Full, 100% of the Moon is Illuminated
May 5
Full
May 5
Full
May 12
Last Quarter
May 20
New
May 28
First Quarter

Hourly Weather History & Observations

Time (PDT) Temp. Dew Point Humidity Pressure Visibility Wind Dir Wind Speed Gust Speed Precip Events Conditions
12:53 AM 70.0 °F 46.9 °F 44% 29.84 in 10.0 mi Calm Calm - N/A   Clear
1:53 AM 66.9 °F 48.0 °F 51% 29.83 in 10.0 mi Calm Calm - N/A   Clear
2:53 AM 66.0 °F 48.0 °F 52% 29.83 in 10.0 mi Calm Calm - N/A   Clear
3:53 AM 64.0 °F 48.9 °F 58% 29.84 in 10.0 mi Calm Calm - N/A   Clear
4:53 AM 64.0 °F 44.1 °F 48% 29.85 in 10.0 mi Calm Calm - N/A   Clear
5:53 AM 63.0 °F 45.0 °F 52% 29.86 in 10.0 mi Calm Calm - N/A   Clear
6:53 AM 68.0 °F 48.0 °F 49% 29.88 in 10.0 mi NW 15.0 mph 18.4 mph N/A   Clear
7:53 AM 70.0 °F 46.0 °F 42% 29.91 in 10.0 mi Variable 3.5 mph - N/A   Clear
8:53 AM 75.9 °F 43.0 °F 31% 29.91 in 10.0 mi NNW 6.9 mph - N/A   Clear
9:53 AM 81.0 °F 39.9 °F 23% 29.91 in 10.0 mi WNW 3.5 mph - N/A   Clear
10:53 AM 84.9 °F 27.0 °F 12% 29.91 in 10.0 mi Calm Calm - N/A   Clear
11:53 AM 90.0 °F 21.0 °F 8% 29.90 in 10.0 mi Calm Calm - N/A   Clear
12:53 PM 91.0 °F 19.9 °F 7% 29.88 in 10.0 mi Variable 5.8 mph - N/A   Clear
1:53 PM 91.9 °F 19.0 °F 7% 29.86 in 10.0 mi North 8.1 mph - N/A   Clear
2:53 PM 91.9 °F 18.0 °F 7% 29.84 in 10.0 mi Calm Calm - N/A   Clear
3:53 PM 93.0 °F 19.9 °F 7% 29.81 in 10.0 mi Variable 3.5 mph - N/A   Clear
4:53 PM 91.9 °F 21.9 °F 8% 29.80 in 10.0 mi Calm Calm - N/A   Clear
5:53 PM 91.0 °F 39.0 °F 16% 29.78 in 10.0 mi NW 15.0 mph - N/A   Clear
6:53 PM 87.1 °F 46.0 °F 24% 29.78 in 10.0 mi NW 18.4 mph 25.3 mph N/A   Clear
7:53 PM 84.0 °F 48.0 °F 28% 29.79 in 10.0 mi NW 19.6 mph 26.5 mph N/A   Clear
8:53 PM 80.1 °F 50.0 °F 35% 29.81 in 10.0 mi NW 19.6 mph 27.6 mph N/A   Clear
9:53 PM 78.1 °F 48.9 °F 36% 29.82 in 10.0 mi NW 16.1 mph - N/A   Clear
10:53 PM 75.9 °F 46.9 °F 36% 29.83 in 10.0 mi NW 13.8 mph - N/A   Clear
11:53 PM 73.9 °F 46.9 °F 38% 29.83 in 10.0 mi NW 12.7 mph - N/A   Clear